Location: Unspecified
(0.0000°N, 0.0000°E)
Time: 11:05:05
(UTC+00:00)

Courier 1B - Pass Details

Date: 23 November 2019
Orbit: 963 x 1209 km, 28.3° (Epoch: 14 December)

Event Time Altitude Azimuth Distance (km) Brightness Sun altitude
Rises 21:44:04 0° 220° (SW) 4,059 11.3 -53.8°
Reaches altitude 10° 21:47:24 10° 209° (SSW) 3,119 10.5 -54.4°
Enters shadow 21:47:38 11° 207° (SSW) 3,059 10.4 -54.5°
Maximum altitude 21:53:48 27° 153° (SSE) 2,113 - -55.7°
Drops below altitude 10° 22:00:14 10° 98° (E) 3,135 - -57.0°
Sets 22:03:34 0° 86° (E) 4,084 - -57.6°
